Kosmos-2232

operational
NORAD ID: 22321 Int'l Des: 1993-006 Owner: PVO Country: RU
MEOELLIPTICALHEO_ELLIPTICALSEMI_SYNC

About Kosmos-2232

Description loading...

Live Position

Loading 3D Globe...

Upcoming Passes

Altitude History

Altitude vs Time

uPlot chart will show altitude changes over time

Two-Line Element Set

1 22321U 93006A 26059.72878850 -.00000555 00000-0 00000-0 0 9991
2 22321 67.2394 190.0175 5468334 127.8015 295.5342 2.00378930242227
Epoch: Feb 28, 2026 • Age: 80 hours

Current Status

Altitude 6945.0 km
Velocity 6.70 km/s
Sub-Earth Point 8.10°N, 86.88°E
Launch Date Jan 26, 1993
Age 33 years
Type other

Technical Details

Classification Payload
Mass 1250.00 kg
Dry Mass 1150.00 kg
Total Mass 1250.00 kg
Length 4.00 m
Diameter 2.00 m
Span 5.00 m
Shape Cyl + 2 Pan
Manufacturer NPOL/KOMET
Bus Type Oko
Phase Status In Orbit
Owner/State PVO/RU

Large Constellations

Loading constellations...